Flag for USA

Past Weather in St. Louis, Missouri, USA — Yesterday and Last 2 Weeks

Now
61 °F

Passing clouds.


Feels Like: 61 °F
Forecast: 80 / 57 °F
Wind: No wind

Location: Lambert-St. Louis International Airport
Current Time: Sep 25, 2020 at 9:03:30 am
Latest Report: Sep 25, 2020 at 7:51 am
Visibility: 10 mi
Pressure29.98 "Hg
Humidity: 83%
Dew Point: 56 °F
Location of St. LouisLocation

Past Weather in St. Louis — Graph

°F

St. Louis Temperature Yesterday

Maximum temperature yesterday: 76 °F (at 4:51 pm)
Minimum temperature yesterday: 57 °F (at 5:51 am)
Average temperature yesterday: 66 °F

High & Low Weather Summary for the Past Weeks

 TemperatureHumidityPressure
High87 °F (Sep 11, 4:51 pm)94% (Sep 13, 2:51 am)30.36 "Hg (Sep 13, 2:51 am)
Low47 °F (Sep 19, 6:51 am)28% (Sep 19, 3:51 pm)29.89 "Hg (Sep 24, 5:51 pm)
Average69 °F67%30.13 "Hg
* Reported Sep 10 7:42 am — Sep 25 7:51 am, St. Louis. Weather by CustomWeather, © 2020

Note: Actual official high and low records may vary slightly from our data, if they occured in-between our weather recording intervals... More about our weather records

St. Louis Weather History for the Previous 24 Hours

Scroll right to see more
 ConditionsComfort  
Time TempWeatherWind HumidityBarometerVisibility
7:51 am
Fri, Sep 25
61 °FPassing clouds.No wind83%29.98 "Hg10 mi
6:51 am58 °FPassing clouds.No wind84%29.96 "Hg9 mi
5:51 am58 °FPassing clouds.No wind84%29.95 "Hg10 mi
4:51 am59 °FClear.No wind84%29.93 "Hg10 mi
3:51 am58 °FClear.No wind87%29.93 "Hg10 mi
1:51 am60 °FClear.No wind86%29.93 "Hg10 mi
12:51 am61 °FClear.No wind81%29.93 "Hg10 mi
11:51 pm
Thu, Sep 24
63 °FClear.No wind78%29.93 "Hg10 mi
10:51 pm65 °FClear.No wind76%29.93 "Hg10 mi
9:51 pm65 °FClear.No wind73%29.92 "Hg10 mi
8:51 pm68 °FClear.No wind63%29.92 "Hg10 mi
7:51 pm70 °FClear.3 mph61%29.91 "Hg10 mi
6:51 pm73 °FPassing clouds.6 mph51%29.90 "Hg10 mi
5:51 pm74 °FPassing clouds.7 mph52%29.89 "Hg10 mi
4:51 pm76 °FPassing clouds.6 mph47%29.90 "Hg10 mi
3:51 pm75 °FScattered clouds.No wind48%29.91 "Hg10 mi
2:51 pm73 °FScattered clouds.No wind53%29.93 "Hg10 mi
1:51 pm75 °FScattered clouds.6 mph52%29.94 "Hg10 mi
12:51 pm71 °FScattered clouds.6 mph59%29.96 "Hg10 mi
11:51 am68 °FScattered clouds.8 mph65%29.98 "Hg10 mi
10:51 am68 °FPassing clouds.6 mph65%30.00 "Hg10 mi
9:51 am64 °FScattered clouds.5 mph73%30.01 "Hg10 mi
Weather by CustomWeather, © 2020

See weather overview